Weather Roundup
Issued by NWS

Home | Current Version | Previous Version | Text Only | Print | Product List | Glossary On
Versions: 1 2 3 4 5 6 7 8 9 10 11 12 13 14 15 16 17 18 19 20 21 22 23 24 25 26 27 28 29 30 31 32 33 34 35 36 37 38 39 40 41 42 43 44 45 46 47 48 49 50
000
NZUS93 KARX 300259
HRRWXR

CURRENT HOURLY OBSERVATIONS ACROSS
MUCH OF THE UPPER MISSISSIPPI VALLEY
NATIONAL WEATHER SERVICE LA CROSSE WI
1000 PM CDT FRI MAY 29 2015


...SOUTHEAST MINNESOTA...


CITY           SKY/WX    TMP DP  RH WIND       PRES   REMARKS
ROCHESTER      LGT RAIN  64  63  96 VRB5      29.94R
ROCHESTER/MAYO CLOUDY    64  64 100 N9        29.93R
WINONA         CLOUDY    64  63  94 CALM      29.91S
AUSTIN         CLOUDY    63  61  94 N6        29.93R
ALBERT LEA     HVY RAIN  63  63 100 N12G17    29.96R
DODGE CENTER   LGT RAIN  63  63 100 N14       29.95R
PRESTON        CLOUDY    63  61  95 N5        29.93R
OWATONNA       DRIZZLE   59  55  88 N21G28    29.99R
FARIBAULT      DRIZZLE   55  55 100 N17       30.00R
$$

...ELSEWHERE IN MINNESOTA...


CITY           SKY/WX    TMP DP  RH WIND       PRES   REMARKS
MINNEAPOLIS    LGT RAIN  54  52  93 N15       30.03R
INTNL FALLS    MOCLDY    45  34  65 NW8       30.15R
DULUTH         CLOUDY    51  41  68 N10G20    30.06R
RED WING       DRIZZLE   63  59  88 N10G16    29.95R
REDWOOD FALLS  CLOUDY    54  48  80 N14       30.10R
MANKATO        CLOUDY    55  52  88 N20G29    30.03R
WORTHINGTON    CLOUDY    48  43  81 N22       30.09R
FAIRMONT       CLOUDY    54  48  82 N22G28    30.02R
$$

...SOUTHWEST WISCONSIN...


CITY           SKY/WX    TMP DP  RH WIND       PRES   REMARKS
LA CROSSE      RAIN      67  65  93 N3        29.90S FOG
PRAIRIE DU CHI DRIZZLE   69  64  84 CALM      29.89S
BOSCOBEL       CLOUDY    68  66  93 CALM      29.91R
LONE ROCK      NOT AVBL
PLATTEVILLE    CLOUDY    71  67  88 SW7       29.92R
FORT MC COY    RAIN      65  64  96 CALM      29.92R
VIROQUA        MOCLDY    65  65 100 NE6       29.92R
WIS DELLS      LGT RAIN  65  62  91 CALM      29.91R
$$

...ELSEWHERE IN WISCONSIN...


CITY           SKY/WX    TMP DP  RH WIND       PRES   REMARKS
MILWAUKEE      MOCLDY    72  66  81 SW7       29.90R
MADISON        CLOUDY    72  64  76 SW6       29.90R
GREEN BAY      LGT RAIN  66  64  93 N3        29.90R
EAU CLAIRE     NOT AVBL
BLACK RVR FLS  LGT RAIN  64  64 100 CALM      29.91R
MEDFORD        RAIN      60  59  96 NE6       29.94R
WAUSAU         LGT RAIN  63  60  90 N5        29.92R
WIS RAPIDS     LGT RAIN  66  63  90 N5        29.92R
MARSHFIELD     LGT RAIN  64  61  90 NE9       29.92R
RICE LAKE      DRIZZLE   57  55  90 N8        29.99R
$$

...NORTHEAST IOWA...


CITY           SKY/WX    TMP DP  RH WIND       PRES   REMARKS
DECORAH        CLOUDY    66  66 100 CALM      29.90R
MASON CITY     CLOUDY    63  62  97 NW6       29.95R
CHARLES CITY   CLOUDY    64  64 100 NE5       29.92R
OELWEIN        LGT RAIN  68  66  94 SW3       29.92R
$$

...ELSEWHERE IN IOWA...


CITY           SKY/WX    TMP DP  RH WIND       PRES   REMARKS
DES MOINES     MOCLDY    70  63  78 S9        29.93R
IOWA CITY      CLOUDY    70  63  78 SW8       29.96R
FORT DODGE     CLOUDY    57  54  88 NW15G21   29.99R
$$

...NORTHERN ILLINOIS...


CITY           SKY/WX    TMP DP  RH WIND       PRES   REMARKS
CHICAGO-OHARE  CLOUDY    76  64  66 SW9       29.92R
CHICAGO-MIDWAY CLOUDY    77  66  68 S10       29.93R
MOLINE         CLOUDY    71  67  87 SW5       29.95R
ROCKFORD       CLOUDY    71  65  81 SW7       29.94R
PEORIA         MOCLDY    72  67  84 S8        29.98R
$$

NOTE: "FAIR" INDICATES FEW OR NO CLOUDS BELOW 12,000 FEET WITH NO
SIGNIFICANT WEATHER AND/OR OBSTRUCTIONS TO VISIBILITY. WIND
SPEEDS ARE IN MILES-PER-HOUR.



USA.gov is the U.S. government's official web portal to all federal, state and local government web resources and services.